Temp
18 17 15 17 17 17 17 17 17 17 16 16 16 15 15 15 15 15 15 15 15 14 15 15 14 14 14 14 14 14 14 14 15 15 15 15 16 16 16 16 16 15 14
21 18 17 17 17 17 17 17 17 15 16 15 15 15 15 15 15 15 15 15 15 14 14 13 14 15 14 14 14 14 14 14 14 15 15 15 15 15 15 15 14 14 13
20 19 19 18 17 17 17 17 17 17 16 15 15 14 14 14 14 15 15 15 15 15 14 14 14 14 14 14 14 14 14 14 14 14 14 14 14 14 14 14 14 14 13
20 19 19 19 18 18 17 17 17 17 16 14 14 14 14 14 14 15 15 15 15 15 14 14 14 14 14 14 14 14 14 14 14 13 13 13 13 13 13 14 14 13 13
20 20 20 20 18 18 18 18 17 18 17 15 14 14 14 14 14 15 15 15 15 15 14 14 14 14 14 14 14 13 13 13 13 13 13 13 13 12 13 13 13 14 14
19 20 20 20 18 18 18 19 19 18 18 16 14 14 14 14 15 15 15 15 15 15 15 15 15 14 14 14 14 13 13 13 13 13 13 12 12 13 12 13 13 13 13
19 19 20 19 18 17 18 19 19 19 18 16 15 14 15 16 15 15 15 15 15 15 15 15 14 14 14 14 13 13 13 13 13 12 12 12 12 12 12 13 12 13 13
19 19 19 18 18 17 17 19 19 18 18 17 16 16 16 16 15 15 15 15 15 14 14 14 14 14 13 14 14 13 13 13 13 12 12 12 12 12 12 13 13 12 13
18 19 18 18 17 17 17 18 18 18 17 17 16 16 16 16 16 15 15 15 15 14 14 14 13 13 13 14 14 14 14 13 13 13 13 12 12 12 12 13 12 12 12
17 18 18 18 17 17 17 17 18 18 17 16 16 15 15 15 15 15 15 15 15 14 13 13 13 13 13 13 14 14 13 13 13 13 13 12 12 12 12 12 12 11 11
17 17 17 17 17 18 17 17 17 17 17 16 15 15 15 14 15 14 14 15 15 14 13 14 13 13 13 13 13 13 13 13 13 12 12 12 11 11 11 11 11 10 10
17 18 17 17 17 17 17 17 17 17 16 16 15 15 15 15 14 14 14 14 14 14 14 13 13 13 13 13 13 13 13 13 12 12 12 11 10 10 9 9 9 9 8
20 18 18 17 17 17 17 17 17 17 16 16 15 15 15 15 14 14 14 14 14 13 14 13 13 13 13 13 13 13 13 13 12 12 11 10 10 9 8 8 8 8 8
19 19 19 18 17 17 17 17 17 17 17 16 15 15 15 15 15 14 14 13 13 13 13 13 13 13 13 13 13 13 13 13 12 11 11 10 9 9 9 9 9 9 8
18 18 18 18 18 17 17 17 16 17 17 17 16 15 15 15 15 14 14 13 13 13 13 13 13 13 12 13 13 13 13 12 12 11 10 10 9 9 9 9 9 9 9
18 18 18 18 18 17 17 17 17 16 16 16 16 16 15 15 15 14 13 13 13 13 12 12 12 12 12 13 13 13 12 12 11 11 10 10 9 9 9 9 9 9 9
18 18 18 18 18 17 17 17 16 16 16 16 16 16 16 15 14 13 13 13 13 12 12 12 12 12 12 12 12 12 12 12 11 10 10 9 9 9 8 8 8 8 8
18 18 18 18 17 17 17 17 16 16 16 16 16 15 15 15 14 13 13 13 12 12 12 12 12 11 12 12 12 12 12 11 11 10 9 9 9 9 8 8 8 8 8
19 18 18 18 18 17 17 17 17 16 16 15 15 15 15 14 13 13 12 13 12 12 11 11 11 11 12 12 12 12 11 11 10 9 9 9 8 8 8 8 7 7 7
19 19 18 18 18 18 17 17 17 16 16 16 15 15 14 14 13 13 13 12 12 12 11 11 11 11 12 12 12 11 11 10 9 9 8 8 8 7 7 7 7 7 7
17 18 18 18 18 18 17 17 16 16 16 15 15 15 15 14 13 13 13 12 11 12 12 11 11 11 12 12 11 11 10 10 9 8 8 7 7 7 7 7 7 7 7
17 17 18 18 18 18 18 17 17 16 16 16 16 16 15 15 14 13 13 12 12 11 11 11 11 12 12 11 11 10 9 9 8 8 8 7 7 7 6 6 6 6 6
17 17 17 17 18 18 18 17 17 16 16 16 16 15 15 14 14 13 13 13 12 12 12 12 11 12 12 11 11 11 10 10 9 8 8 7 7 6 6 5 5 5 5
17 17 17 17 17 17 17 17 17 17 17 16 16 16 16 15 14 13 13 14 12 12 12 12 11 12 11 11 11 11 10 10 10 9 7 7 7 6 6 5 5 5 4
16 17 17 17 17 16 16 17 17 17 16 16 16 16 15 15 15 15 14 14 13 13 13 12 12 11 11 11 11 11 10 10 9 9 8 7 6 6 5 5 5 4 4
17 17 17 17 17 17 16 16 16 16 16 16 16 16 16 15 15 15 14 14 13 13 12 12 11 11 10 11 10 10 10 9 9 8 7 7 6 6 5 5 5 4 3
Height
1505 1507 1510 1512 1514 1516 1518 1519 1521 1522 1523 1525 1525 1527 1528 1529 1530 1531 1531 1530 1530 1530 1532 1532 1533 1534 1535 1535 1537 1537 1537 1536 1537 1537 1538 1539 1539 1538 1538 1538 1537 1537 1537
1505 1507 1510 1513 1515 1516 1518 1519 1521 1522 1523 1525 1525 1527 1528 1528 1529 1530 1529 1529 1529 1530 1532 1534 1535 1536 1537 1537 1537 1537 1536 1536 1537 1537 1538 1538 1539 1538 1538 1539 1539 1538 1538
1506 1507 1510 1513 1515 1517 1519 1520 1522 1523 1524 1525 1525 1527 1528 1529 1529 1529 1529 1529 1529 1530 1532 1534 1536 1536 1537 1537 1537 1537 1537 1537 1538 1538 1539 1539 1539 1539 1539 1539 1539 1539 1539
1507 1509 1511 1514 1516 1518 1520 1521 1522 1523 1524 1525 1526 1527 1528 1529 1530 1530 1531 1531 1531 1531 1533 1535 1536 1537 1538 1538 1538 1538 1538 1538 1538 1539 1539 1539 1540 1540 1540 1540 1540 1540 1539
1506 1509 1512 1514 1516 1518 1520 1521 1523 1523 1524 1525 1526 1528 1529 1530 1531 1532 1532 1533 1533 1534 1535 1536 1537 1538 1539 1539 1539 1539 1539 1539 1539 1539 1540 1540 1540 1541 1541 1541 1541 1541 1541
1506 1509 1512 1515 1517 1519 1521 1522 1522 1524 1525 1526 1527 1528 1530 1531 1532 1533 1534 1534 1535 1536 1537 1537 1538 1539 1539 1540 1540 1540 1541 1540 1540 1540 1541 1541 1542 1542 1542 1542 1542 1541 1541
1507 1510 1513 1515 1517 1519 1521 1523 1523 1524 1525 1526 1528 1529 1531 1531 1532 1533 1534 1535 1536 1537 1538 1539 1539 1540 1540 1541 1541 1541 1541 1541 1541 1541 1541 1542 1542 1543 1543 1542 1542 1542 1542
1509 1511 1514 1516 1518 1520 1522 1523 1524 1524 1526 1526 1528 1530 1531 1533 1533 1534 1535 1536 1537 1538 1539 1540 1541 1541 1541 1541 1541 1541 1542 1542 1542 1542 1542 1542 1542 1542 1542 1542 1541 1542 1542
1510 1512 1514 1517 1519 1520 1522 1523 1523 1524 1526 1527 1528 1529 1531 1532 1533 1534 1535 1536 1538 1539 1540 1541 1541 1542 1542 1542 1542 1542 1542 1542 1542 1542 1543 1543 1542 1542 1541 1542 1542 1540 1540
1510 1513 1515 1517 1519 1520 1521 1522 1523 1524 1525 1527 1528 1530 1531 1532 1534 1535 1536 1537 1538 1539 1540 1541 1542 1542 1542 1543 1543 1542 1542 1543 1543 1543 1542 1543 1543 1541 1541 1541 1541 1540 1539
1509 1512 1514 1516 1518 1520 1521 1522 1523 1523 1525 1527 1528 1529 1531 1532 1533 1535 1536 1537 1538 1539 1540 1541 1542 1542 1542 1543 1543 1542 1542 1543 1542 1543 1542 1542 1541 1542 1542 1540 1541 1540 1540
1506 1509 1512 1514 1516 1519 1520 1520 1522 1523 1524 1526 1528 1529 1530 1532 1533 1535 1536 1537 1538 1539 1540 1541 1541 1542 1542 1542 1543 1542 1542 1542 1541 1542 1541 1541 1541 1542 1542 1541 1541 1541 1539
1503 1507 1509 1511 1514 1516 1517 1519 1521 1522 1523 1525 1527 1528 1530 1531 1532 1534 1535 1536 1537 1538 1539 1540 1541 1542 1541 1541 1541 1541 1541 1540 1540 1541 1541 1541 1541 1540 1541 1539 1540 1540 1539
1502 1504 1506 1509 1511 1513 1515 1516 1519 1520 1522 1523 1525 1527 1528 1529 1530 1532 1534 1536 1537 1538 1539 1539 1540 1541 1541 1540 1541 1539 1539 1538 1538 1539 1540 1539 1540 1539 1538 1538 1539 1539 1538
1501 1503 1504 1506 1508 1510 1512 1514 1516 1517 1519 1521 1523 1525 1526 1527 1529 1531 1533 1534 1536 1536 1538 1538 1539 1539 1540 1539 1539 1538 1538 1537 1538 1538 1538 1538 1538 1538 1538 1538 1538 1538 1537
1500 1501 1503 1504 1505 1507 1509 1511 1512 1514 1516 1518 1520 1522 1523 1525 1528 1530 1531 1533 1534 1536 1538 1538 1538 1538 1538 1537 1538 1537 1537 1536 1537 1537 1536 1537 1537 1538 1538 1538 1538 1537 1537
1495 1498 1500 1502 1503 1504 1506 1508 1510 1511 1513 1515 1517 1518 1520 1523 1525 1527 1529 1531 1534 1534 1536 1537 1537 1537 1537 1536 1536 1536 1535 1535 1535 1535 1536 1536 1536 1536 1537 1537 1536 1536 1535
1492 1493 1495 1498 1500 1501 1502 1504 1506 1508 1510 1511 1514 1516 1518 1520 1523 1526 1527 1529 1532 1532 1534 1535 1535 1536 1536 1536 1535 1534 1534 1534 1534 1534 1535 1535 1535 1535 1535 1535 1534 1534 1533
1487 1489 1491 1492 1493 1496 1498 1501 1503 1505 1505 1507 1510 1511 1514 1517 1519 1521 1525 1526 1529 1530 1532 1533 1533 1533 1534 1534 1534 1533 1533 1533 1533 1533 1533 1533 1534 1534 1534 1533 1532 1532 1531
1479 1481 1484 1487 1489 1490 1493 1496 1498 1499 1502 1503 1506 1508 1510 1512 1515 1517 1520 1522 1526 1527 1528 1529 1530 1530 1531 1532 1532 1531 1531 1531 1532 1532 1532 1532 1532 1532 1532 1531 1531 1530 1529
1470 1472 1475 1478 1482 1484 1486 1489 1492 1493 1495 1498 1500 1503 1505 1508 1511 1513 1516 1518 1521 1524 1525 1526 1527 1527 1528 1529 1529 1529 1529 1530 1529 1530 1530 1530 1530 1530 1529 1529 1528 1527 1526
1465 1466 1469 1470 1474 1477 1479 1481 1483 1487 1489 1492 1495 1496 1499 1502 1506 1508 1511 1513 1517 1519 1521 1522 1523 1524 1524 1525 1526 1526 1527 1529 1528 1527 1527 1527 1528 1527 1527 1526 1525 1523 1521
1458 1461 1464 1466 1467 1468 1472 1474 1475 1480 1482 1484 1487 1490 1492 1497 1500 1503 1506 1508 1511 1514 1516 1518 1520 1520 1521 1522 1523 1524 1523 1523 1524 1525 1525 1525 1525 1525 1524 1523 1521 1519 1517
1451 1455 1457 1459 1461 1462 1464 1465 1467 1470 1472 1476 1480 1484 1487 1491 1494 1497 1500 1503 1506 1509 1511 1513 1515 1516 1518 1519 1519 1520 1520 1521 1522 1522 1521 1522 1522 1522 1521 1520 1518 1515 1513
1443 1446 1449 1451 1453 1455 1456 1457 1460 1462 1464 1467 1471 1476 1480 1484 1488 1490 1493 1495 1499 1502 1505 1507 1509 1510 1513 1515 1515 1516 1516 1517 1518 1519 1518 1518 1518 1518 1518 1516 1514 1511 1509
1441 1442 1444 1445 1446 1448 1449 1450 1452 1455 1457 1460 1463 1466 1472 1476 1480 1483 1486 1488 1491 1495 1498 1501 1503 1505 1507 1510 1511 1511 1512 1512 1513 1514 1514 1514 1513 1514 1513 1511 1509 1506 1504
Wind_Speed
17 18 18 18 17 16 16 15 15 15 14 14 14 13 13 12 10 8 7 6 6 4 4 7 8 12 11 10 7 3 1 5 6 7 7 7 7 5 3 3 2 2 3
17 19 17 18 18 16 15 14 14 14 13 11 10 10 9 9 7 4 2 2 3 6 13 14 13 11 8 5 3 1 2 1 3 3 3 2 1 3 5 4 3 3 2
16 19 17 17 17 16 14 14 14 13 14 13 11 8 6 4 3 2 3 6 7 9 15 16 15 12 6 2 1 1 4 7 7 7 7 6 6 8 7 5 4 4 4
13 17 17 17 16 15 14 14 13 12 13 14 11 9 8 6 4 4 7 8 9 11 16 14 11 7 3 1 3 6 7 7 6 7 7 7 7 10 8 6 5 5 5
16 16 16 17 17 15 14 13 12 11 12 16 13 10 9 5 4 8 10 11 11 11 10 9 7 5 5 7 7 9 7 6 5 5 6 8 6 8 8 5 6 6 5
17 18 17 18 18 16 14 12 12 10 11 15 17 15 8 5 9 10 11 11 12 12 12 12 11 10 9 8 8 6 4 4 3 5 4 5 8 5 8 3 4 4 3
19 20 19 19 19 16 14 12 11 10 11 13 16 13 9 12 11 11 11 11 11 12 12 12 11 10 8 7 5 3 3 2 1 2 1 1 5 4 6 3 2 3 2
17 20 19 19 17 15 13 12 12 12 12 13 14 15 14 12 12 11 11 11 11 11 11 10 9 7 6 4 3 2 2 2 1 2 2 3 4 5 5 3 3 4 4
16 18 18 17 16 15 13 12 12 13 12 14 16 15 14 12 11 11 10 9 9 10 9 7 6 5 3 3 1 0 1 2 2 3 4 4 5 7 7 6 4 3 5
13 15 17 16 15 15 15 14 13 14 14 15 15 14 13 12 11 11 10 9 8 8 7 6 4 3 2 2 1 1 2 3 3 4 4 6 7 8 8 5 1 5 6
16 17 18 17 15 15 15 16 16 16 16 16 16 16 15 14 14 12 10 9 8 7 7 5 4 3 2 2 2 3 5 6 7 8 7 7 6 4 2 4 5 6 5
22 21 21 18 15 16 18 18 18 18 18 18 17 17 16 14 14 13 11 10 9 8 8 6 6 5 4 4 4 5 7 9 9 8 7 5 0 3 3 4 3 5 2
20 22 21 19 16 17 20 19 19 19 20 20 20 19 18 17 17 16 14 13 11 11 10 8 7 5 5 5 5 7 9 9 8 7 2 3 3 3 3 4 5 4 2
23 21 20 19 19 19 20 21 21 20 20 21 22 21 21 20 18 17 15 14 12 12 11 10 8 6 6 6 7 9 9 8 6 4 2 5 9 9 6 1 1 2 3
29 26 22 21 22 22 22 22 22 22 22 21 22 24 23 21 19 17 16 15 14 13 12 11 9 8 8 9 9 9 8 6 5 4 3 3 5 7 5 3 4 4 5
29 27 26 25 24 24 24 24 23 21 23 22 23 25 25 23 20 19 17 17 15 14 12 11 9 9 9 10 9 8 7 5 4 3 2 2 2 4 5 4 5 5 7
30 30 29 29 28 28 27 26 24 21 20 24 26 25 25 24 22 20 18 19 16 15 13 11 10 11 11 11 9 8 7 6 5 3 2 1 2 3 3 4 6 6 7
24 27 26 36 34 33 32 29 27 25 23 23 24 25 26 24 21 20 19 20 19 17 14 12 12 12 12 10 9 8 7 7 6 4 3 2 2 3 3 4 6 8 9
31 29 27 23 30 40 34 31 29 29 28 26 23 26 26 22 21 21 18 19 20 18 15 14 14 14 12 11 10 8 7 7 6 5 4 3 4 4 4 8 7 8 9
38 37 32 28 27 26 40 35 32 32 33 31 27 29 27 24 22 20 18 20 20 18 16 16 17 15 13 12 10 8 7 6 6 6 5 5 6 6 8 10 10 10 11
28 38 43 34 29 29 36 42 38 38 36 37 33 30 30 27 26 26 22 21 20 19 18 18 17 16 14 13 10 9 7 7 8 8 8 8 9 10 11 12 13 14 17
22 20 31 40 36 34 33 39 45 42 38 37 37 35 33 29 28 30 27 25 22 22 22 20 18 18 17 14 11 9 7 10 12 12 11 12 12 13 14 14 16 18 21
32 28 26 24 25 29 37 35 44 46 43 42 40 41 38 33 31 33 31 29 24 23 24 21 19 19 18 16 14 10 6 7 11 13 14 14 14 15 16 16 18 22 25
36 32 29 27 27 27 23 35 42 46 51 48 45 41 39 38 35 36 34 32 31 26 26 24 21 20 20 18 15 14 12 9 7 6 13 15 15 16 17 18 22 26 25
18 27 28 28 29 27 26 29 33 44 50 49 48 45 42 39 39 39 37 35 32 32 30 28 25 24 23 21 18 15 13 11 11 11 7 11 15 18 19 21 25 24 24
16 17 20 24 26 26 27 30 28 33 42 45 49 49 44 41 43 42 41 39 35 36 35 30 29 26 24 22 19 16 14 12 11 11 12 13 15 18 19 20 23 23 22
Wind_Direction
176 173 171 174 171 171 173 170 172 175 181 188 189 194 199 207 218 227 242 258 267 230 133 111 117 130 107 97 106 113 307 239 233 234 240 255 260 272 296 313 346 30 358
172 170 173 174 173 174 175 173 173 168 166 175 182 188 196 201 204 237 278 233 174 153 144 123 125 133 141 122 93 1 342 130 156 165 164 148 102 77 67 65 60 17 73
179 170 172 179 176 177 177 177 180 182 179 182 189 191 199 186 140 48 114 127 136 142 142 148 152 161 160 137 323 5 120 119 114 108 108 94 79 67 61 53 51 45 81
182 178 176 177 174 179 180 180 182 185 183 176 182 183 178 150 122 113 118 118 116 127 151 162 164 172 187 208 121 125 126 112 105 100 94 92 80 62 48 46 39 41 49
179 185 182 177 173 176 178 179 179 180 184 178 179 177 174 154 140 126 116 111 110 115 131 153 166 171 141 123 122 133 131 111 104 92 94 72 72 53 26 46 50 44 38
179 183 186 180 175 177 178 176 168 167 171 170 169 182 181 171 143 126 118 116 115 116 119 121 122 121 118 115 121 141 134 134 85 64 65 59 54 34 346 8 32 337 327
185 183 188 184 179 182 180 173 169 165 167 170 177 183 176 152 141 131 127 121 120 120 119 119 117 114 112 115 126 143 160 176 76 99 70 5 27 326 326 36 280 276 291
193 187 190 186 184 186 184 179 174 166 163 166 167 161 156 152 146 140 136 131 128 127 126 125 122 121 124 132 141 187 232 254 257 266 280 293 313 308 310 302 335 281 285
190 197 193 191 189 191 192 190 182 170 165 162 162 159 159 155 152 150 145 142 139 137 134 134 129 126 134 127 133 192 232 235 260 273 278 279 292 297 302 307 316 291 266
194 202 200 201 201 200 199 198 194 184 177 173 174 172 170 173 172 167 162 160 155 156 150 154 151 137 134 117 72 305 264 268 283 281 277 281 292 296 305 319 202 235 255
202 205 203 208 212 214 212 206 204 197 189 187 185 185 185 188 187 184 180 176 174 175 178 176 176 178 202 251 289 296 291 292 296 290 289 296 304 328 169 166 209 226 252
208 210 211 211 222 224 221 214 212 207 201 198 197 196 194 195 193 189 193 192 192 194 200 201 206 209 224 265 281 288 290 295 297 294 296 313 133 160 155 178 199 250 261
221 216 219 220 222 229 226 223 221 217 212 208 206 204 202 199 196 198 202 201 203 205 210 217 217 229 250 270 285 295 298 294 293 290 279 179 188 158 166 153 202 260 333
223 225 226 230 231 231 230 229 229 226 221 217 213 213 212 211 211 211 211 213 218 217 219 221 224 239 264 278 293 302 302 302 299 280 238 216 222 227 303 329 307 314 335
226 226 230 231 233 232 235 229 229 229 229 224 221 220 221 221 221 218 215 216 220 223 221 221 233 250 272 283 295 298 296 294 286 274 261 234 244 249 261 292 300 309 314
228 235 238 236 235 234 235 233 232 233 231 227 226 226 227 229 226 226 223 224 221 221 222 228 239 260 272 281 288 286 286 284 277 275 265 247 243 254 266 285 296 308 314
232 237 238 241 240 238 237 237 235 236 231 230 231 228 229 231 228 228 232 233 227 225 226 241 256 267 268 276 280 281 277 279 276 272 255 252 243 244 270 289 300 306 308
234 234 242 245 241 241 241 238 238 238 236 236 235 231 229 228 230 230 235 233 231 230 235 247 261 265 266 268 268 265 264 264 262 244 238 253 251 262 281 296 302 300 304
242 244 243 247 245 239 241 242 246 243 242 242 240 231 226 226 230 233 240 235 235 233 242 254 256 258 257 256 255 251 252 257 236 227 237 258 264 282 268 301 299 302 302
246 247 249 250 251 247 237 242 241 248 242 242 242 237 227 226 228 231 234 234 234 234 245 253 254 251 246 246 242 239 238 229 215 223 238 248 259 269 280 292 299 301 304
247 244 246 249 247 246 236 236 238 240 241 237 241 241 233 226 228 228 233 233 231 239 251 253 248 240 235 235 230 228 221 220 221 227 243 249 257 269 280 290 300 300 305
257 247 244 250 252 248 249 237 237 236 240 244 242 242 238 228 228 230 234 230 233 239 245 243 243 235 230 228 225 224 215 225 229 233 243 248 257 267 277 286 294 298 304
252 251 252 251 255 255 247 246 236 236 237 239 239 238 236 225 231 233 235 236 234 243 247 244 243 233 232 227 225 220 206 221 214 235 240 246 252 261 271 280 289 298 302
251 255 259 255 255 258 255 243 242 238 236 237 239 241 242 230 229 234 236 241 238 246 244 237 236 233 233 233 227 230 236 237 218 225 234 242 249 256 265 275 287 296 297
265 252 252 255 260 255 252 256 244 242 241 236 236 236 237 237 232 236 233 237 239 240 242 234 232 224 229 233 233 233 234 240 244 245 250 243 249 256 265 276 286 290 295
271 262 263 253 259 259 259 249 252 244 246 243 237 235 233 235 233 234 235 236 235 236 234 231 229 227 225 230 233 236 240 243 253 257 258 262 263 264 268 276 287 293 295